Regional Weather Roundup
Issued by NWS

Home | Current Version | Previous Version | Graphics & Text | Print | Product List | Glossary On
Versions: 1 2 3 4 5 6 7 8 9 10 11 12 13 14 15 16 17 18 19 20 21 22 23 24 25 26 27
000
ASUS45 KBOU 291407
RWRCO

WEATHER ROUNDUP FOR COLORADO
NATIONAL WEATHER SERVICE DENVER/BOULDER CO
800 AM MDT MON MAY 29 2017

NOTE: "FAIR" INDICATES FEW OR NO CLOUDS BELOW 12000 FEET WITH NO
SIGNIFICANT WEATHER AND/OR OBSTRUCTIONS TO VISIBILITY.

COZ001>005-013-030-031-291500-
...NORTHWEST COLORADO...

CITY           SKY/WX    TMP DP  RH WIND       PRES   REMARKS
CRAIG          FAIR      44  37  76 CALM      30.31R
HAYDEN         FAIR      46  30  53 E10       30.30R
MEEKER         FAIR      46  32  58 NW6       30.29S
RABBIT EARS PA FAIR      37  28  70 CALM      30.44R
STEAMBOAT SPGS FAIR      40  34  77 CALM      30.31S
WALDEN           N/A     39  32  75 CALM      30.38S
$$

COZ006>008-011-291500-
...WEST CENTRAL VALLEYS...

CITY           SKY/WX    TMP DP  RH WIND       PRES   REMARKS
GRAND JUNCTION FAIR      60  31  33 SE12      30.20R
MONTROSE       FAIR      52  25  35 SE6       30.26R
EAGLE          SUNNY     46  32  57 CALM      30.35R
RIFLE          FAIR      51  33  50 CALM      30.26R
DELTA          FAIR      54  29  39 CALM      30.24S
NUCLA          FAIR      52  23  32 SE3       30.27S
$$

COZ017>023-064>068-291500-
...SOUTHWEST COLORADO...

CITY           SKY/WX    TMP DP  RH WIND       PRES   REMARKS
DURANGO        FAIR      48  23  37 CALM      30.26R
CORTEZ         FAIR      50  29  44 E5        30.22S
PAGOSA SPRINGS FAIR      49  21  33 CALM      30.32S
TELLURIDE      FAIR      46  19  34 SE6       30.39S
WOLF CREEK PAS FAIR      37  10  32 S5        30.55R
$$

COZ009-010-012-014-032>034-037-058>063-291500-
...CENTRAL COLORADO...

CITY           SKY/WX    TMP DP  RH WIND       PRES   REMARKS
ASPEN          FAIR      45  28  51 CALM      30.32S
BUENA VISTA    FAIR      45  28  51 CALM      30.36S
COPPER MTN     FAIR      37  25  60 CALM      30.50R
BERTHOUD PASS  FAIR      30  21  69 W3        30.51R
COTTONWOOD PAS FAIR      45  28  53 E5        30.42R
GUNNISON       FAIR      40  24  53 CALM      30.37R
KREMMLING      FAIR      45  36  70 CALM      30.37S
LEADVILLE      FAIR      38  24  57 CALM      30.40S
MONARCH PASS   FAIR      36  27  69 E5        30.59S
SALIDA         FAIR      46  30  53 CALM      30.44S
SUNLIGHT       FAIR      39  23  52 CALM      30.48R
WILKERSON PASS FAIR      36  27  69 CALM      30.50R
$$

COZ069>075-291500-
...SAN LUIS VALLEY/SANGRE DE CRISTO MOUNTAINS...

CITY           SKY/WX    TMP DP  RH WIND       PRES   REMARKS
ALAMOSA        FAIR      48  30  49 S3        30.32R
DEL NORTE      FAIR      48  22  36 W10       30.35S
LA VETA PASS   FAIR      39  32  75 N5        30.53S
SAGUACHE       FAIR      46  23  39 NW9       30.35R
$$

COZ035-036-038>040-291500-
...NORTHERN COLORADO FRONT RANGE...

CITY           SKY/WX    TMP DP  RH WIND       PRES   REMARKS
DENVER INTL AP FAIR      54  44  69 W7        30.27R
DMNS CITY PARK   N/A     55  39  54 SW7G14    30.27S
AURORA         MOSUNNY   54  42  63 S8        30.28R
FRONT RANGE AP MOSUNNY   57  46  67 S6        30.28R
ERIE MUNI ARPT FAIR      53  46  76 CALM      30.27R
BOULDER MUN AP FAIR      55  43  62 CALM      30.27R
CENTENNIAL     FAIR      53  42  66 CALM      30.29R
BROOMFIELD     MOSUNNY   55  45  67 CALM      30.28S
FORT COLLINS   FAIR      55  40  56 CALM      30.26S
LONGMONT       FAIR      59  44  56 CALM      30.28R
$$

COZ041-046-047-076>085-087-088-291500-
...PIKES PEAK/PALMER DIVIDE AND SOUTHERN FOOTHILLS...

CITY           SKY/WX    TMP DP  RH WIND       PRES   REMARKS
COLO. SPRINGS  FAIR      56  38  50 CALM      30.31S
A. F. ACADEMY  FAIR      51  38  63 N3        30.31S
SCHRIEVER AFB  FAIR      55  38  52 N8        30.31R
CHEYENNE MTN   FAIR      53  36  53 SE10      30.28R
ELLICOTT       FAIR     N/A N/A N/A E7        30.29R
FALCON         FAIR      53  37  53 NE6       30.34S
FORT CARSON    FAIR      56  39  54 CALM      30.30R
LIMON          FAIR      54  45  71 W8        30.28R
MONUMENT HILL  FAIR      48  37  66 CALM      30.35R
CANON CITY     NOT AVBL
WALSENBURG     FAIR      54  41  62 MISG      30.31S
TRINIDAD       FAIR      53  40  61 N8        30.30R
$$

COZ042>045-048>051-090-091-291500-
...NORTHEAST COLORADO...

CITY           SKY/WX    TMP DP  RH WIND       PRES   REMARKS
GREELEY ARPT   FAIR      53  45  74 CALM      30.26S
AKRON          FAIR      56  44  64 W12       30.25R
BURLINGTON     FAIR      61  46  57 NW12      30.22R
WRAY           FAIR      59  46  63 NW15      30.20S
YUMA           PTSUNNY   57  36  44 NW9       30.21S
STERLING       NOT AVBL
HOLYOKE        NOT AVBL
FORT MORGAN    PTSUNNY   56  46  69 W3        30.25S
$$

COZ086-089-092>099-291500-
...SOUTHEAST COLORADO...

CITY           SKY/WX    TMP DP  RH WIND       PRES   REMARKS
PUEBLO         FAIR      57  43  59 W6        30.26S
LA JUNTA       FAIR      58  47  66 W8        30.25S
LAMAR          PTSUNNY   55  48  77 W5        30.22R
SPRINGFIELD      N/A     61  44  53 NE7       30.23S
$$




USA.gov is the U.S. government's official web portal to all federal, state and local government web resources and services.